Showing default

COSMOS 2269, 23000

Orbit data source: Space-Track

COSMOS 2269, 23000 is a payload satellite owned by VKS (CIS) in LEO that was launched on Sat, 12 Feb 1994 UTC via a TSIKLON-3 launch vehicle from the Plesetsk Missile And Space Complex (PKMTR). Payload-class satellites include a variety of spacecraft equipped with specific instruments for various scientific and technological missions. These include communications satellites like Starlink; space stations such as the ISS; scientific satellites like the Hubble; Earth observation satellites from companies like Planet Labs, Umbra, and HawkEye 360; GPS; miniature CubeSats for education and research; and military/defense satellites.

Loading next visibility...
Identifier
23000, 1994-011B
Orbit
LEO
Country
Flag of CISCIS
Related business
Manufacturer
NPO PM
Mission
Defense Communications
Bus & Motor
STRELA-3, Unknown motor
Mass
225 kg wet, 225 kg dry
Launch date (UTC)
1994-02-12 (32 years ago)
Launch vehicle
TSIKLON-3
Launch site
Plesetsk Missile And Space Complex (PKMTR)
Object type
Payload
Rocket body
Debris
Shape & HBR
Cyl, 0.8 m
Radar Cross Section
1.257 m², Large (>1 m²)

Expand to show TLE details & history
Last TLE update: 4 hours ago

TLE from 4 hours ago
0 COSMOS 2269
1 23000U 94011B   26127.89619102  .00000019  00000-0  47096-4 0  9994
2 23000  82.5696 346.8492 0006188 285.4587  85.6413 12.61942339484598
Epoch: 2026-05-07T21:30Z
TLE epoch observation values (Epoch: 2026-05-07T21:30:30.904Z)
Latitude
11.03036°
Longitude
159.93423°
Altitude
1,416.555 km
Speed
7.153 km/s
True Right ascension
23h 13m 11s
True Declination
10° 58' 17"
Sunlit
Object was in daylight at epoch
Visualization orbit readout
Latitude
Unknown
Longitude
Unknown
Altitude
Unknown
Speed
Unknown
Apparent Right ascension
Unknown
Apparent Declination
Unknown
Sunlit
N/A
Visualization observer readout
Local Sidereal Time
09:09:28
Azimuth
Unknown
Elevation
Unknown
Doppler factor
Unknown
Orbital elements
Apogee altitude
1,417.08 km
Perigee altitude
1,407.438 km
Semi-major axis
7,790.396 km
Eccentricity
0.00062
Inclination
82.5696°
RAAN
346.8492°
Arg. of periapsis
285.4587°
True anomaly
85.71201°
Mean anomaly
85.6413°
Eccentric anomaly
85.67665°
Mean motion
3.15649 °/min
Orbital period
114.05 mins
BSTAR
0.000047096
Loading maneuver chart data...
Computing Atmospheric mass density...
Loading historical data...
Loading historical data...
Loading historical data...
Loading historical data...
Loading historical data...
Loading historical data...
Loading historical data...

Documentation

Showing up to 5 results
|